| time (UTC) | temp C | wind direction | speed KPH | gust KPH | rain 1hr cm | rain 24hr cm | rain mn cm | humidity % | barometer mb |
| 20260509034647 | 8 | 40 | 0.0 | 0.0 | 0.00 | 0.00 | 0.00 | 77 | 1014.4 |
| 20260509034153 | 8 | 34 | 0.0 | 0.0 | 0.00 | 0.00 | 0.00 | 76 | 1014.3 |
| 20260509033657 | 8 | 5 | 0.0 | 0.0 | 0.00 | 0.00 | 0.00 | 76 | 1014.3 |
| 20260509033151 | 8 | 360 | 0.0 | 0.0 | 0.00 | 0.00 | 0.00 | 76 | 1014.3 |
| 20260509032650 | 8 | 360 | 0.0 | 0.0 | 0.00 | 0.00 | 0.00 | 76 | 1014.3 |
| 20260509032138 | 8 | 360 | 0.0 | 0.0 | 0.00 | 0.00 | 0.00 | 76 | 1014.3 |
| 20260509031643 | 8 | 360 | 0.0 | 0.0 | 0.00 | 0.00 | 0.00 | 76 | 1014.3 |
| 20260509031146 | 8 | 355 | 0.0 | 0.0 | 0.00 | 0.00 | 0.00 | 76 | 1014.6 |
| 20260509030651 | 8 | 355 | 0.0 | 0.0 | 0.00 | 0.00 | 0.00 | 76 | 1014.6 |
| 20260509030151 | 8 | 355 | 0.0 | 0.0 | 0.00 | 0.00 | 0.00 | 76 | 1014.6 |
| 20260509025645 | 8 | 355 | 0.0 | 0.0 | 0.00 | 0.00 | 0.00 | 76 | 1014.6 |
| 20260509025150 | 8 | 355 | 0.0 | 0.0 | 0.00 | 0.00 | 0.00 | 76 | 1014.6 |
| 20260509024652 | 8 | 360 | 0.0 | 0.0 | 0.00 | 0.00 | 0.00 | 76 | 1014.6 |
| 20260509024142 | 8 | 355 | 0.0 | 0.0 | 0.00 | 0.00 | 0.00 | 76 | 1014.6 |
| 20260509023648 | 8 | 360 | 0.0 | 0.0 | 0.00 | 0.00 | 0.00 | 76 | 1014.6 |
| 20260509023135 | 8 | 60 | 0.0 | 0.0 | 0.00 | 0.00 | 0.00 | 76 | 1014.6 |
| 20260509022644 | 8 | 360 | 0.0 | 0.0 | 0.00 | 0.00 | 0.00 | 75 | 1014.5 |
| 20260509022150 | 8 | 60 | 0.0 | 0.0 | 0.00 | 0.00 | 0.00 | 75 | 1014.5 |
| 20260509021640 | 8 | 61 | 0.0 | 0.0 | 0.00 | 0.00 | 0.00 | 75 | 1014.5 |
| 20260509021145 | 8 | 61 | 0.0 | 0.0 | 0.00 | 0.00 | 0.00 | 75 | 1014.4 |
| 20260509020648 | 8 | 360 | 0.0 | 0.0 | 0.00 | 0.00 | 0.00 | 75 | 1014.4 |
| 20260509020149 | 8 | 61 | 0.0 | 0.0 | 0.00 | 0.00 | 0.00 | 75 | 1014.4 |
| 20260509015655 | 8 | 360 | 0.0 | 0.0 | 0.00 | 0.00 | 0.00 | 75 | 1014.4 |
| 20260509015154 | 8 | 61 | 0.0 | 0.0 | 0.00 | 0.00 | 0.00 | 75 | 1014.4 |
| 20260509014649 | 8 | 60 | 0.0 | 0.0 | 0.00 | 0.00 | 0.00 | 75 | 1014.4 |
| 20260509014142 | 8 | 60 | 0.0 | 0.0 | 0.00 | 0.00 | 0.00 | 75 | 1014.4 |
| 20260509013645 | 8 | 61 | 0.0 | 0.0 | 0.00 | 0.00 | 0.00 | 75 | 1014.4 |
| 20260509013149 | 8 | 61 | 0.0 | 0.0 | 0.00 | 0.00 | 0.00 | 75 | 1014.4 |
| 20260509012655 | 8 | 61 | 0.0 | 0.0 | 0.00 | 0.00 | 0.00 | 74 | 1014.2 |
| 20260509012143 | 8 | 60 | 0.0 | 0.0 | 0.00 | 0.00 | 0.00 | 74 | 1014.2 |
| 20260509011649 | 8 | 60 | 0.0 | 0.0 | 0.00 | 0.00 | 0.00 | 74 | 1014.2 |
| 20260509011157 | 8 | 61 | 0.0 | 0.0 | 0.00 | 0.00 | 0.00 | 74 | 1014.2 |
| 20260509010641 | 8 | 60 | 0.0 | 0.0 | 0.00 | 0.00 | 0.00 | 74 | 1014.2 |
| 20260509010144 | 8 | 360 | 0.0 | 0.0 | 0.00 | 0.00 | 0.00 | 75 | 1014.2 |
| 20260509005650 | 8 | 61 | 0.0 | 0.0 | 0.00 | 0.00 | 0.00 | 75 | 1014.2 |
| 20260509005139 | 8 | 61 | 0.0 | 0.0 | 0.00 | 0.00 | 0.00 | 75 | 1014.2 |
| 20260509004639 | 8 | 61 | 0.0 | 0.0 | 0.00 | 0.00 | 0.00 | 75 | 1014.2 |
| 20260509004142 | 8 | 61 | 0.0 | 0.0 | 0.00 | 0.00 | 0.00 | 75 | 1014.1 |
| 20260509003643 | 8 | 61 | 0.0 | 0.0 | 0.00 | 0.00 | 0.00 | 75 | 1014.1 |
| 20260509003147 | 8 | 360 | 0.0 | 0.0 | 0.00 | 0.00 | 0.00 | 74 | 1014.1 |
| 20260509002650 | 8 | 60 | 0.0 | 0.0 | 0.00 | 0.00 | 0.00 | 73 | 1014.4 |
| 20260509002153 | 8 | 60 | 0.0 | 0.0 | 0.00 | 0.00 | 0.00 | 73 | 1014.4 |
| 20260509001645 | 8 | 60 | 0.0 | 0.0 | 0.00 | 0.00 | 0.00 | 73 | 1014.4 |
| 20260509001144 | 8 | 60 | 0.0 | 0.0 | 0.00 | 0.00 | 0.00 | 73 | 1014.5 |
| 20260509000650 | 8 | 59 | 0.0 | 0.0 | 0.00 | 0.00 | 0.00 | 72 | 1014.5 |
| 20260509000135 | 8 | 59 | 0.0 | 0.0 | 0.00 | 0.00 | 0.00 | 72 | 1014.5 |
| 20260508235638 | 8 | 59 | 0.0 | 0.0 | 0.00 | 0.00 | 0.00 | 71 | 1014.5 |
| 20260508235140 | 8 | 59 | 0.0 | 0.0 | 0.00 | 0.00 | 0.00 | 71 | 1014.5 |
| 20260508234646 | 9 | 360 | 0.0 | 0.0 | 0.00 | 0.00 | 0.00 | 71 | 1014.5 |
| 20260508234155 | 9 | 71 | 0.0 | 0.0 | 0.00 | 0.00 | 0.00 | 71 | 1014.5 |
| 20260508233657 | 9 | 59 | 0.0 | 0.0 | 0.00 | 0.00 | 0.00 | 71 | 1014.5 |
| 20260508233156 | 9 | 59 | 0.0 | 0.0 | 0.00 | 0.00 | 0.00 | 71 | 1014.5 |
| 20260508232642 | 9 | 59 | 0.0 | 0.0 | 0.00 | 0.00 | 0.00 | 71 | 1014.5 |
| 20260508232151 | 9 | 59 | 0.0 | 0.0 | 0.00 | 0.00 | 0.00 | 71 | 1014.5 |
| 20260508231649 | 9 | 59 | 0.0 | 0.0 | 0.00 | 0.00 | 0.00 | 71 | 1014.5 |
| 20260508231155 | 9 | 59 | 0.0 | 0.0 | 0.00 | 0.00 | 0.00 | 70 | 1014.8 |
| 20260508230657 | 9 | 59 | 0.0 | 0.0 | 0.00 | 0.00 | 0.00 | 70 | 1014.8 |
| 20260508230147 | 9 | 59 | 0.0 | 0.0 | 0.00 | 0.00 | 0.00 | 70 | 1014.8 |
| 20260508225638 | 10 | 59 | 0.0 | 0.0 | 0.00 | 0.00 | 0.00 | 70 | 1014.7 |
| 20260508225147 | 10 | 59 | 0.0 | 0.0 | 0.00 | 0.00 | 0.00 | 70 | 1014.7 |
| 20260508224652 | 10 | 59 | 0.0 | 0.0 | 0.00 | 0.00 | 0.00 | 70 | 1014.7 |
| 20260508224140 | 10 | 59 | 0.0 | 0.0 | 0.00 | 0.00 | 0.00 | 71 | 1014.6 |
| 20260508223641 | 10 | 360 | 0.0 | 0.0 | 0.00 | 0.00 | 0.00 | 70 | 1014.6 |
| 20260508223147 | 10 | 59 | 0.0 | 0.0 | 0.00 | 0.00 | 0.00 | 70 | 1014.6 |
| 20260508222654 | 10 | 60 | 0.0 | 0.0 | 0.00 | 0.00 | 0.00 | 70 | 1014.6 |
| 20260508222154 | 10 | 60 | 0.0 | 0.0 | 0.00 | 0.00 | 0.00 | 70 | 1014.6 |
| 20260508221640 | 10 | 60 | 0.0 | 0.0 | 0.00 | 0.00 | 0.00 | 70 | 1014.6 |
| 20260508221142 | 10 | 60 | 0.0 | 0.0 | 0.00 | 0.00 | 0.00 | 70 | 1014.6 |
| 20260508220648 | 10 | 60 | 0.0 | 0.0 | 0.00 | 0.00 | 0.00 | 69 | 1014.6 |
| 20260508220152 | 10 | 60 | 0.0 | 0.0 | 0.00 | 0.00 | 0.00 | 69 | 1014.6 |
| 20260508215636 | 10 | 60 | 0.0 | 0.0 | 0.00 | 0.00 | 0.00 | 69 | 1014.5 |
| 20260508215138 | 10 | 59 | 0.0 | 0.0 | 0.00 | 0.00 | 0.00 | 68 | 1014.5 |
| 20260508214643 | 10 | 67 | 0.0 | 0.0 | 0.00 | 0.00 | 0.00 | 68 | 1014.5 |
| 20260508214148 | 10 | 60 | 0.0 | 0.0 | 0.00 | 0.00 | 0.00 | 68 | 1014.4 |
| 20260508213650 | 10 | 60 | 0.0 | 0.0 | 0.00 | 0.00 | 0.00 | 67 | 1014.4 |
| 20260508213139 | 11 | 60 | 0.0 | 0.0 | 0.00 | 0.00 | 0.00 | 67 | 1014.4 |
| 20260508212639 | 11 | 59 | 0.0 | 0.0 | 0.00 | 0.00 | 0.00 | 67 | 1014.4 |
| 20260508212148 | 11 | 59 | 0.0 | 0.0 | 0.00 | 0.00 | 0.00 | 67 | 1014.4 |
| 20260508211652 | 11 | 59 | 0.0 | 0.0 | 0.00 | 0.00 | 0.00 | 67 | 1014.4 |
| 20260508211152 | 11 | 60 | 0.0 | 0.0 | 0.00 | 0.00 | 0.00 | 67 | 1013.7 |
| 20260508210637 | 11 | 360 | 0.0 | 0.0 | 0.00 | 0.00 | 0.00 | 67 | 1013.7 |
| 20260508210141 | 11 | 63 | 0.0 | 0.0 | 0.00 | 0.00 | 0.00 | 66 | 1013.7 |
| 20260508205645 | 11 | 60 | 0.0 | 0.0 | 0.00 | 0.00 | 0.00 | 66 | 1013.7 |
| 20260508205145 | 11 | 60 | 0.0 | 0.0 | 0.00 | 0.00 | 0.00 | 66 | 1013.7 |
| 20260508204655 | 11 | 60 | 0.0 | 0.0 | 0.00 | 0.00 | 0.00 | 66 | 1013.7 |
| 20260508204137 | 11 | 60 | 0.0 | 0.0 | 0.00 | 0.00 | 0.00 | 65 | 1013.6 |
| 20260508203648 | 12 | 60 | 0.0 | 0.0 | 0.00 | 0.00 | 0.00 | 65 | 1013.6 |
| 20260508203143 | 12 | 61 | 0.0 | 0.0 | 0.00 | 0.00 | 0.00 | 65 | 1013.6 |
| 20260508202639 | 12 | 360 | 0.0 | 0.0 | 0.00 | 0.00 | 0.00 | 64 | 1014.3 |
| 20260508202153 | 12 | 360 | 0.0 | 0.0 | 0.00 | 0.00 | 0.00 | 63 | 1014.3 |
| 20260508201639 | 12 | 360 | 0.0 | 0.0 | 0.00 | 0.00 | 0.00 | 63 | 1014.3 |
| 20260508201155 | 12 | 61 | 0.0 | 0.0 | 0.00 | 0.00 | 0.00 | 63 | 1013.5 |
| 20260508200654 | 12 | 64 | 0.0 | 0.0 | 0.00 | 0.00 | 0.00 | 63 | 1013.5 |
| 20260508200140 | 12 | 64 | 0.0 | 0.0 | 0.00 | 0.00 | 0.00 | 63 | 1013.5 |
| 20260508195645 | 12 | 64 | 0.0 | 0.0 | 0.00 | 0.00 | 0.00 | 63 | 1013.2 |
| 20260508195152 | 13 | 69 | 0.0 | 0.0 | 0.00 | 0.00 | 0.00 | 62 | 1013.2 |
| 20260508194636 | 13 | 69 | 0.0 | 0.0 | 0.00 | 0.00 | 0.00 | 62 | 1013.2 |
| 20260508194142 | 13 | 57 | 0.0 | 0.0 | 0.00 | 0.00 | 0.00 | 62 | 1013.2 |
| 20260508193638 | 13 | 49 | 0.0 | 0.0 | 0.00 | 0.00 | 0.00 | 61 | 1013.2 |
| 20260508193140 | 13 | 49 | 0.0 | 0.0 | 0.00 | 0.00 | 0.00 | 61 | 1013.2 |
| 20260508192649 | 13 | 48 | 0.0 | 0.0 | 0.00 | 0.00 | 0.00 | 61 | 1013.6 |
| 20260508192152 | 13 | 55 | 0.0 | 0.0 | 0.00 | 0.00 | 0.00 | 60 | 1013.6 |
| 20260508191655 | 14 | 57 | 0.0 | 0.0 | 0.00 | 0.00 | 0.00 | 60 | 1013.6 |
| 20260508191140 | 14 | 59 | 0.0 | 0.0 | 0.00 | 0.00 | 0.00 | 60 | 1012.8 |
| 20260508190649 | 14 | 67 | 0.0 | 0.0 | 0.00 | 0.00 | 0.00 | 59 | 1012.8 |
| 20260508190145 | 14 | 82 | 0.0 | 0.0 | 0.00 | 0.00 | 0.00 | 59 | 1012.8 |
| 20260508185647 | 15 | 57 | 0.0 | 0.0 | 0.00 | 0.00 | 0.00 | 59 | 1012.7 |
| 20260508185152 | 15 | 54 | 0.0 | 0.0 | 0.00 | 0.00 | 0.00 | 58 | 1012.7 |
| 20260508184655 | 15 | 53 | 0.0 | 0.0 | 0.00 | 0.00 | 0.00 | 58 | 1012.7 |
| 20260508184155 | 15 | 59 | 0.0 | 0.0 | 0.00 | 0.00 | 0.00 | 58 | 1012.6 |
| 20260508183640 | 15 | 64 | 0.0 | 0.0 | 0.00 | 0.00 | 0.00 | 58 | 1012.6 |
| 20260508183143 | 15 | 60 | 0.0 | 0.0 | 0.00 | 0.00 | 0.00 | 57 | 1012.6 |
| 20260508182646 | 15 | 69 | 0.0 | 0.0 | 0.00 | 0.00 | 0.00 | 57 | 1012.2 |
| 20260508182154 | 15 | 67 | 0.0 | 0.0 | 0.00 | 0.00 | 0.00 | 57 | 1012.2 |
| 20260508181640 | 15 | 42 | 1.6 | 0.0 | 0.00 | 0.00 | 0.00 | 57 | 1012.2 |
| 20260508181138 | 16 | 82 | 1.6 | 0.0 | 0.00 | 0.00 | 0.00 | 56 | 1012.3 |
| 20260508180641 | 16 | 78 | 1.6 | 0.0 | 0.00 | 0.00 | 0.00 | 56 | 1012.3 |
| 20260508180150 | 16 | 53 | 1.6 | 0.0 | 0.00 | 0.00 | 0.00 | 55 | 1012.3 |
| 20260508175649 | 16 | 67 | 1.6 | 0.0 | 0.00 | 0.00 | 0.00 | 55 | 1012.0 |
| 20260508175149 | 16 | 73 | 1.6 | 0.0 | 0.00 | 0.00 | 0.00 | 55 | 1012.0 |
| 20260508174638 | 16 | 68 | 3.2 | 0.0 | 0.00 | 0.00 | 0.00 | 54 | 1012.0 |
| 20260508174142 | 16 | 71 | 3.2 | 0.0 | 0.00 | 0.00 | 0.00 | 54 | 1011.9 |
| 20260508173649 | 16 | 62 | 1.6 | 0.0 | 0.00 | 0.00 | 0.00 | 54 | 1011.9 |
| 20260508173152 | 16 | 15 | 1.6 | 0.0 | 0.00 | 0.00 | 0.00 | 53 | 1011.9 |
| 20260508172657 | 16 | 60 | 1.6 | 0.0 | 0.00 | 0.00 | 0.00 | 53 | 1011.7 |
| 20260508172158 | 17 | 86 | 3.2 | 0.0 | 0.00 | 0.00 | 0.00 | 53 | 1011.7 |
| 20260508171640 | 17 | 86 | 4.8 | 0.0 | 0.00 | 0.00 | 0.00 | 51 | 1011.7 |
| 20260508171143 | 17 | 42 | 3.2 | 0.0 | 0.00 | 0.00 | 0.00 | 51 | 1011.9 |
| 20260508170649 | 17 | 63 | 1.6 | 0.0 | 0.00 | 0.00 | 0.00 | 51 | 1011.9 |
| 20260508170153 | 17 | 17 | 1.6 | 0.0 | 0.00 | 0.00 | 0.00 | 52 | 1011.9 |
| 20260508165654 | 17 | 14 | 3.2 | 0.0 | 0.00 | 0.00 | 0.00 | 51 | 1011.7 |
| 20260508165141 | 17 | 22 | 3.2 | 0.0 | 0.00 | 0.00 | 0.00 | 50 | 1011.7 |
| 20260508164644 | 18 | 60 | 3.2 | 0.0 | 0.00 | 0.00 | 0.00 | 50 | 1011.7 |
| 20260508164150 | 18 | 38 | 1.6 | 0.0 | 0.00 | 0.00 | 0.00 | 50 | 1011.8 |
| 20260508163655 | 18 | 63 | 1.6 | 0.0 | 0.00 | 0.00 | 0.00 | 49 | 1011.8 |
| 20260508163157 | 18 | 96 | 1.6 | 0.0 | 0.00 | 0.00 | 0.00 | 50 | 1011.8 |
| 20260508162639 | 18 | 103 | 3.2 | 0.0 | 0.00 | 0.00 | 0.00 | 49 | 1011.7 |
| 20260508162144 | 18 | 66 | 3.2 | 0.0 | 0.00 | 0.00 | 0.00 | 49 | 1011.7 |
| 20260508161649 | 18 | 54 | 3.2 | 0.0 | 0.00 | 0.00 | 0.00 | 49 | 1011.7 |
| 20260508161155 | 18 | 90 | 3.2 | 0.0 | 0.00 | 0.00 | 0.00 | 48 | 1011.9 |
| 20260508160643 | 19 | 15 | 1.6 | 0.0 | 0.00 | 0.00 | 0.00 | 47 | 1011.9 |
| 20260508160151 | 20 | 360 | 1.6 | 0.0 | 0.00 | 0.00 | 0.00 | 48 | 1011.9 |
| 20260508155654 | 19 | 360 | 1.6 | 0.0 | 0.00 | 0.00 | 0.00 | 49 | 1011.9 |
| 20260508155157 | 20 | 67 | 3.2 | 0.0 | 0.00 | 0.00 | 0.00 | 48 | 1011.9 |
| 20260508154647 | 20 | 104 | 6.4 | 0.0 | 0.00 | 0.00 | 0.00 | 48 | 1011.9 |
| 20260508154139 | 19 | 92 | 6.4 | 0.0 | 0.00 | 0.00 | 0.00 | 48 | 1011.8 |
| 20260508153645 | 20 | 98 | 1.6 | 0.0 | 0.00 | 0.00 | 0.00 | 48 | 1011.8 |
| 20260508153152 | 20 | 69 | 1.6 | 0.0 | 0.00 | 0.00 | 0.00 | 47 | 1011.8 |
| 20260508152643 | 19 | 60 | 1.6 | 0.0 | 0.00 | 0.00 | 0.00 | 47 | 1012.1 |
| 20260508152147 | 19 | 56 | 0.0 | 0.0 | 0.00 | 0.00 | 0.00 | 49 | 1012.1 |
| 20260508151656 | 18 | 90 | 1.6 | 0.0 | 0.00 | 0.00 | 0.00 | 50 | 1012.1 |
| 20260508151143 | 18 | 89 | 1.6 | 0.0 | 0.00 | 0.00 | 0.00 | 49 | 1012.2 |
| 20260508150641 | 18 | 335 | 0.0 | 0.0 | 0.00 | 0.00 | 0.00 | 49 | 1012.2 |
| 20260508150144 | 17 | 68 | 0.0 | 0.0 | 0.00 | 0.00 | 0.00 | 51 | 1012.2 |
| 20260508145651 | 17 | 46 | 1.6 | 0.0 | 0.00 | 0.00 | 0.00 | 51 | 1012.2 |
| 20260508145153 | 17 | 32 | 3.2 | 0.0 | 0.00 | 0.00 | 0.00 | 50 | 1012.2 |
| 20260508144655 | 18 | 66 | 4.8 | 0.0 | 0.00 | 0.00 | 0.00 | 49 | 1012.2 |
| 20260508144156 | 18 | 43 | 3.2 | 0.0 | 0.00 | 0.00 | 0.00 | 49 | 1012.1 |
| 20260508143641 | 18 | 36 | 3.2 | 0.0 | 0.00 | 0.00 | 0.00 | 49 | 1012.1 |
| 20260508143152 | 19 | 55 | 1.6 | 0.0 | 0.00 | 0.00 | 0.00 | 48 | 1012.1 |
| 20260508142654 | 20 | 53 | 1.6 | 0.0 | 0.00 | 0.00 | 0.00 | 48 | 1012.3 |
| 20260508142159 | 19 | 95 | 1.6 | 0.0 | 0.00 | 0.00 | 0.00 | 49 | 1012.3 |
| 20260508141642 | 19 | 56 | 1.6 | 0.0 | 0.00 | 0.00 | 0.00 | 49 | 1012.3 |
| 20260508141147 | 18 | 10 | 1.6 | 0.0 | 0.00 | 0.00 | 0.00 | 49 | 1012.2 |
| 20260508140652 | 19 | 53 | 1.6 | 0.0 | 0.00 | 0.00 | 0.00 | 48 | 1012.2 |
| 20260508140158 | 19 | 10 | 1.6 | 0.0 | 0.00 | 0.00 | 0.00 | 50 | 1012.2 |
| 20260508135650 | 20 | 30 | 3.2 | 0.0 | 0.00 | 0.00 | 0.00 | 48 | 1012.3 |
| 20260508135141 | 20 | 69 | 3.2 | 0.0 | 0.00 | 0.00 | 0.00 | 47 | 1012.3 |
| 20260508134646 | 19 | 56 | 1.6 | 0.0 | 0.00 | 0.00 | 0.00 | 50 | 1012.3 |
| 20260508134154 | 18 | 360 | 1.6 | 0.0 | 0.00 | 0.00 | 0.00 | 50 | 1012.6 |
| 20260508133645 | 19 | 15 | 1.6 | 0.0 | 0.00 | 0.00 | 0.00 | 47 | 1012.6 |
| 20260508133149 | 19 | 61 | 1.6 | 0.0 | 0.00 | 0.00 | 0.00 | 51 | 1012.6 |
| 20260508132654 | 18 | 18 | 3.2 | 0.0 | 0.00 | 0.00 | 0.00 | 50 | 1012.4 |
| 20260508132157 | 18 | 26 | 3.2 | 0.0 | 0.00 | 0.00 | 0.00 | 50 | 1012.4 |
| 20260508131658 | 19 | 45 | 3.2 | 0.0 | 0.00 | 0.00 | 0.00 | 53 | 1012.4 |
| 20260508131200 | 18 | 75 | 1.6 | 0.0 | 0.00 | 0.00 | 0.00 | 53 | 1012.9 |
| 20260508130644 | 18 | 32 | 1.6 | 0.0 | 0.00 | 0.00 | 0.00 | 51 | 1012.9 |
| 20260508130153 | 18 | 35 | 1.6 | 0.0 | 0.00 | 0.00 | 0.00 | 52 | 1012.9 |
| 20260508125638 | 17 | 360 | 3.2 | 0.0 | 0.00 | 0.00 | 0.00 | 54 | 1012.9 |
| 20260508125147 | 17 | 61 | 3.2 | 0.0 | 0.00 | 0.00 | 0.00 | 51 | 1012.9 |
| 20260508124649 | 18 | 60 | 1.6 | 0.0 | 0.00 | 0.00 | 0.00 | 52 | 1012.9 |
| 20260508124143 | 18 | 57 | 1.6 | 0.0 | 0.00 | 0.00 | 0.00 | 52 | 1012.9 |
| 20260508123652 | 18 | 340 | 1.6 | 0.0 | 0.00 | 0.00 | 0.00 | 52 | 1012.9 |
| 20260508123158 | 18 | 86 | 1.6 | 0.0 | 0.00 | 0.00 | 0.00 | 52 | 1012.9 |
| 20260508122642 | 18 | 360 | 1.6 | 0.0 | 0.00 | 0.00 | 0.00 | 54 | 1013.1 |
| 20260508122147 | 17 | 55 | 1.6 | 0.0 | 0.00 | 0.00 | 0.00 | 54 | 1013.1 |
| 20260508121652 | 17 | 360 | 1.6 | 0.0 | 0.00 | 0.00 | 0.00 | 53 | 1013.1 |
| 20260508121200 | 18 | 28 | 1.6 | 0.0 | 0.00 | 0.00 | 0.00 | 55 | 1012.8 |
| 20260508120645 | 18 | 12 | 0.0 | 0.0 | 0.00 | 0.00 | 0.00 | 53 | 1012.8 |
| 20260508120150 | 18 | 15 | 1.6 | 0.0 | 0.00 | 0.00 | 0.00 | 53 | 1012.8 |
| 20260508115659 | 18 | 355 | 3.2 | 0.0 | 0.00 | 0.00 | 0.00 | 53 | 1012.7 |
| 20260508115147 | 18 | 117 | 3.2 | 0.0 | 0.00 | 0.00 | 0.00 | 52 | 1012.7 |
| 20260508114656 | 18 | 21 | 1.6 | 0.0 | 0.00 | 0.00 | 0.00 | 54 | 1012.7 |
| 20260508114141 | 18 | 56 | 1.6 | 0.0 | 0.00 | 0.00 | 0.00 | 56 | 1012.8 |
| 20260508113650 | 18 | 56 | 1.6 | 0.0 | 0.00 | 0.00 | 0.00 | 55 | 1012.8 |
| 20260508113142 | 18 | 106 | 3.2 | 0.0 | 0.00 | 0.00 | 0.00 | 55 | 1012.8 |
| 20260508112649 | 18 | 63 | 3.2 | 0.0 | 0.00 | 0.00 | 0.00 | 55 | 1013.1 |
| 20260508112154 | 18 | 360 | 3.2 | 0.0 | 0.00 | 0.00 | 0.00 | 55 | 1013.1 |
| 20260508111656 | 17 | 71 | 3.2 | 0.0 | 0.00 | 0.00 | 0.00 | 56 | 1013.1 |
| 20260508111200 | 17 | 68 | 3.2 | 0.0 | 0.00 | 0.00 | 0.00 | 58 | 1013.1 |
| 20260508110642 | 17 | 79 | 3.2 | 0.0 | 0.00 | 0.00 | 0.00 | 55 | 1013.1 |
| 20260508110200 | 17 | 82 | 3.2 | 0.0 | 0.00 | 0.00 | 0.00 | 57 | 1013.1 |
| 20260508105648 | 17 | 101 | 3.2 | 0.0 | 0.00 | 0.00 | 0.00 | 57 | 1013.3 |
| 20260508105155 | 17 | 29 | 1.6 | 0.0 | 0.00 | 0.00 | 0.00 | 58 | 1013.3 |
| 20260508104637 | 17 | 65 | 1.6 | 0.0 | 0.00 | 0.00 | 0.00 | 58 | 1013.3 |
| 20260508104153 | 17 | 92 | 3.2 | 0.0 | 0.00 | 0.00 | 0.00 | 59 | 1013.4 |
| 20260508103639 | 17 | 79 | 4.8 | 0.0 | 0.00 | 0.00 | 0.00 | 59 | 1013.4 |
| 20260508103157 | 16 | 69 | 4.8 | 0.0 | 0.00 | 0.00 | 0.00 | 60 | 1013.4 |
| 20260508102640 | 16 | 77 | 3.2 | 0.0 | 0.00 | 0.00 | 0.00 | 60 | 1013.4 |
| 20260508102148 | 16 | 13 | 1.6 | 0.0 | 0.00 | 0.00 | 0.00 | 63 | 1013.4 |
| 20260508101658 | 16 | 360 | 1.6 | 0.0 | 0.00 | 0.00 | 0.00 | 62 | 1013.4 |
| 20260508101156 | 16 | 44 | 1.6 | 0.0 | 0.00 | 0.00 | 0.00 | 61 | 1014.3 |
| 20260508100644 | 16 | 9 | 1.6 | 0.0 | 0.00 | 0.00 | 0.00 | 61 | 1014.3 |
| 20260508100149 | 16 | 111 | 1.6 | 0.0 | 0.00 | 0.00 | 0.00 | 61 | 1014.3 |
| 20260508095648 | 16 | 26 | 1.6 | 0.0 | 0.00 | 0.00 | 0.00 | 61 | 1013.6 |
| 20260508095155 | 16 | 57 | 1.6 | 0.0 | 0.00 | 0.00 | 0.00 | 64 | 1013.6 |
| 20260508094642 | 15 | 39 | 1.6 | 0.0 | 0.00 | 0.00 | 0.00 | 65 | 1013.6 |
| 20260508094144 | 15 | 89 | 1.6 | 0.0 | 0.00 | 0.00 | 0.00 | 64 | 1013.4 |
| 20260508093650 | 15 | 49 | 1.6 | 0.0 | 0.00 | 0.00 | 0.00 | 63 | 1013.4 |
| 20260508093158 | 15 | 105 | 1.6 | 0.0 | 0.00 | 0.00 | 0.00 | 65 | 1013.4 |
| 20260508092656 | 15 | 111 | 1.6 | 0.0 | 0.00 | 0.00 | 0.00 | 69 | 1013.6 |
| 20260508092152 | 14 | 113 | 1.6 | 0.0 | 0.00 | 0.00 | 0.00 | 68 | 1013.6 |
| 20260508091644 | 14 | 113 | 1.6 | 0.0 | 0.00 | 0.00 | 0.00 | 68 | 1013.6 |
| 20260508091152 | 13 | 78 | 1.6 | 0.0 | 0.00 | 0.00 | 0.00 | 68 | 1013.7 |
| 20260508090639 | 13 | 62 | 1.6 | 0.0 | 0.00 | 0.00 | 0.00 | 68 | 1013.7 |
| 20260508090139 | 13 | 360 | 1.6 | 0.0 | 0.00 | 0.00 | 0.00 | 70 | 1013.7 |
| 20260508085651 | 13 | 33 | 0.0 | 0.0 | 0.00 | 0.00 | 0.00 | 71 | 1013.4 |
| 20260508085145 | 13 | 32 | 3.2 | 0.0 | 0.00 | 0.00 | 0.00 | 67 | 1013.4 |
| 20260508084639 | 14 | 46 | 1.6 | 0.0 | 0.00 | 0.00 | 0.00 | 68 | 1013.4 |
| 20260508084148 | 13 | 67 | 1.6 | 0.0 | 0.00 | 0.00 | 0.00 | 70 | 1013.7 |
| 20260508083650 | 13 | 86 | 3.2 | 0.0 | 0.00 | 0.00 | 0.00 | 70 | 1013.7 |
| 20260508083150 | 12 | 50 | 3.2 | 0.0 | 0.00 | 0.00 | 0.00 | 71 | 1013.7 |
| 20260508082639 | 12 | 87 | 0.0 | 0.0 | 0.00 | 0.00 | 0.00 | 73 | 1013.6 |
| 20260508082145 | 12 | 61 | 1.6 | 0.0 | 0.00 | 0.00 | 0.00 | 74 | 1013.6 |
| 20260508081648 | 12 | 58 | 1.6 | 0.0 | 0.00 | 0.00 | 0.00 | 73 | 1013.6 |
| 20260508081149 | 12 | 64 | 1.6 | 0.0 | 0.00 | 0.00 | 0.00 | 74 | 1014.0 |
| 20260508080653 | 12 | 100 | 1.6 | 0.0 | 0.00 | 0.00 | 0.00 | 74 | 1014.0 |
| 20260508080155 | 12 | 29 | 1.6 | 0.0 | 0.00 | 0.00 | 0.00 | 75 | 1014.0 |
| 20260508075641 | 11 | 84 | 1.6 | 0.0 | 0.00 | 0.00 | 0.00 | 76 | 1014.0 |
| 20260508075147 | 11 | 32 | 1.6 | 0.0 | 0.00 | 0.00 | 0.00 | 78 | 1014.0 |
| 20260508074638 | 11 | 62 | 1.6 | 0.0 | 0.00 | 0.00 | 0.00 | 76 | 1014.0 |
| 20260508074200 | 11 | 56 | 1.6 | 0.0 | 0.00 | 0.00 | 0.00 | 77 | 1014.2 |
| 20260508073639 | 11 | 77 | 1.6 | 0.0 | 0.00 | 0.00 | 0.00 | 78 | 1014.2 |
| 20260508073144 | 10 | 42 | 0.0 | 0.0 | 0.00 | 0.00 | 0.00 | 79 | 1014.2 |
| 20260508072643 | 10 | 57 | 0.0 | 0.0 | 0.00 | 0.00 | 0.00 | 78 | 1014.1 |
| 20260508072145 | 10 | 10 | 0.0 | 0.0 | 0.00 | 0.00 | 0.00 | 79 | 1014.1 |
| 20260508071653 | 10 | 351 | 0.0 | 0.0 | 0.00 | 0.00 | 0.00 | 79 | 1014.1 |
| 20260508071156 | 10 | 59 | 1.6 | 0.0 | 0.00 | 0.00 | 0.00 | 81 | 1013.9 |
| 20260508070658 | 10 | 5 | 1.6 | 0.0 | 0.00 | 0.00 | 0.00 | 79 | 1013.9 |
| 20260508070147 | 9 | 355 | 0.0 | 0.0 | 0.00 | 0.00 | 0.00 | 82 | 1013.9 |
| 20260508065655 | 8 | 53 | 0.0 | 0.0 | 0.00 | 0.00 | 0.00 | 81 | 1014.1 |
| 20260508065149 | 9 | 56 | 0.0 | 0.0 | 0.00 | 0.00 | 0.00 | 80 | 1014.1 |
| 20260508064652 | 9 | 59 | 0.0 | 0.0 | 0.00 | 0.00 | 0.00 | 80 | 1014.1 |
| 20260508064157 | 9 | 38 | 0.0 | 0.0 | 0.00 | 0.00 | 0.00 | 81 | 1013.9 |
| 20260508063657 | 8 | 21 | 0.0 | 0.0 | 0.00 | 0.00 | 0.00 | 80 | 1013.9 |
| 20260508063138 | 8 | 360 | 0.0 | 0.0 | 0.00 | 0.00 | 0.00 | 79 | 1013.9 |
| 20260508062648 | 8 | 46 | 0.0 | 0.0 | 0.00 | 0.00 | 0.00 | 81 | 1013.8 |
| 20260508062153 | 8 | 49 | 0.0 | 0.0 | 0.00 | 0.00 | 0.00 | 82 | 1013.8 |
| 20260508061651 | 8 | 49 | 0.0 | 0.0 | 0.00 | 0.00 | 0.00 | 83 | 1013.8 |
| 20260508061156 | 8 | 53 | 0.0 | 0.0 | 0.00 | 0.00 | 0.00 | 84 | 1013.9 |
| 20260508060648 | 7 | 46 | 0.0 | 0.0 | 0.00 | 0.00 | 0.00 | 85 | 1013.9 |
| 20260508060152 | 7 | 47 | 0.0 | 0.0 | 0.00 | 0.00 | 0.00 | 85 | 1013.9 |
| 20260508055657 | 7 | 46 | 0.0 | 0.0 | 0.00 | 0.00 | 0.00 | 86 | 1013.8 |
| 20260508055146 | 7 | 46 | 0.0 | 0.0 | 0.00 | 0.00 | 0.00 | 87 | 1013.8 |
| 20260508054652 | 7 | 46 | 0.0 | 0.0 | 0.00 | 0.00 | 0.00 | 87 | 1013.8 |
| 20260508054150 | 6 | 46 | 0.0 | 0.0 | 0.00 | 0.00 | 0.00 | 87 | 1013.0 |
| 20260508053654 | 6 | 46 | 0.0 | 0.0 | 0.00 | 0.00 | 0.00 | 87 | 1013.0 |
| 20260508053142 | 6 | 46 | 0.0 | 0.0 | 0.00 | 0.00 | 0.00 | 87 | 1013.0 |
| 20260508052648 | 6 | 46 | 0.0 | 0.0 | 0.00 | 0.00 | 0.00 | 86 | 1013.0 |
| 20260508052200 | 5 | 46 | 0.0 | 0.0 | 0.00 | 0.00 | 0.00 | 86 | 1013.0 |
| 20260508051650 | 5 | 46 | 0.0 | 0.0 | 0.00 | 0.00 | 0.00 | 86 | 1013.0 |
| 20260508051158 | 5 | 46 | 0.0 | 0.0 | 0.00 | 0.00 | 0.00 | 86 | 1012.8 |
| 20260508050643 | 5 | 360 | 0.0 | 0.0 | 0.00 | 0.00 | 0.00 | 86 | 1012.8 |
| 20260508050147 | 5 | 46 | 0.0 | 0.0 | 0.00 | 0.00 | 0.00 | 86 | 1012.8 |
| 20260508045650 | 5 | 37 | 0.0 | 0.0 | 0.00 | 0.00 | 0.00 | 86 | 1012.9 |
| 20260508045158 | 4 | 44 | 0.0 | 0.0 | 0.00 | 0.00 | 0.00 | 85 | 1012.9 |
| 20260508044659 | 3 | 41 | 0.0 | 0.0 | 0.00 | 0.00 | 0.00 | 85 | 1012.9 |
| 20260508044147 | 3 | 41 | 0.0 | 0.0 | 0.00 | 0.00 | 0.00 | 82 | 1012.8 |
| 20260508043656 | 3 | 41 | 0.0 | 0.0 | 0.00 | 0.00 | 0.00 | 82 | 1012.8 |
| 20260508043142 | 3 | 42 | 0.0 | 0.0 | 0.00 | 0.00 | 0.00 | 81 | 1012.8 |
| 20260508042648 | 3 | 42 | 0.0 | 0.0 | 0.00 | 0.00 | 0.00 | 81 | 1012.6 |
| 20260508042153 | 3 | 41 | 0.0 | 0.0 | 0.00 | 0.00 | 0.00 | 81 | 1012.6 |
| 20260508041655 | 3 | 41 | 0.0 | 0.0 | 0.00 | 0.00 | 0.00 | 81 | 1012.6 |
| 20260508041139 | 3 | 42 | 0.0 | 0.0 | 0.00 | 0.00 | 0.00 | 81 | 1012.5 |
| 20260508040647 | 3 | 41 | 0.0 | 0.0 | 0.00 | 0.00 | 0.00 | 81 | 1012.5 |
| 20260508040156 | 3 | 42 | 0.0 | 0.0 | 0.00 | 0.00 | 0.00 | 81 | 1012.5 |
| 20260508035643 | 3 | 41 | 0.0 | 0.0 | 0.00 | 0.00 | 0.00 | 81 | 1012.4 |
| 20260508035156 | 3 | 42 | 0.0 | 0.0 | 0.00 | 0.00 | 0.00 | 81 | 1012.4 |